Flag for Japan Weather past 2 weeks in Suzuka, Japan

Now
71 °F

Mild.


Feels Like: 68 °F
Forecast: 69 / 73 °F
Wind: 3 mph from Southeast

Location: Tsu

Current Time: Jul 6, 2015 at 6:46:24 PM

Latest Report: Jul 6, 2015 at 6:00 PM


Visibility: N/A

Pressure: 29.88 "Hg

Humidity: 90%

Dew point: 68 °F

Location of SuzukaLocation

Historic Weather in Suzuka — Graph

°F

Suzuka temperature yesterday

Maximum temperature yesterday: 72 °F (at 2:00 PM)
Minimum temperature yesterday: 67 °F (at 4:00 AM)
Average temperature yesterday: 70 °F

Past Weeks' High & Low Weather Summary

 TemperatureHumidityPressure
High81 °F (Jun 23, 5:00 PM)97% (Jun 26, 11:00 PM)29.94 "Hg (Jun 26, 11:00 PM)
Low65 °F (Jun 29, 5:00 AM)50% (Jun 28, 1:00 PM)29.26 "Hg (Jul 1, 11:00 AM)
Average73 °F81%29.73 "Hg
* Reported Jun 21 5:00 PM — Jul 6 5:00 PM, Suzuka, Weather by CustomWeather, © 2015

Note: Actual official high and low records may vary slightly from our data, if they occured in-between our weather recording intervals... More about our weather records

Advertising

Suzuka weather history for previous 24 hours

 ConditionsComfort  
Time TempWeatherWind HumidityBarometerVisibility
5:00 PM
Mon, Jul 6
70 °FMild.2 mph91%29.88 "HgN/A
4:00 PM71 °FMild.3 mph90%29.86 "HgN/A
3:00 PM71 °FLight rain. Overcast.5 mph90%29.87 "Hg6 mi
2:00 PM71 °FMild.3 mph90%29.88 "HgN/A
1:00 PM70 °FMild.3 mph90%29.89 "HgN/A
11:00 AM69 °FMild.1 mph93%29.89 "HgN/A
10:00 AM70 °FMild.1 mph91%29.88 "HgN/A
9:00 AM70 °FLight rain. Overcast.2 mph91%29.88 "Hg5 mi
8:00 AM69 °FMild.3 mph92%29.88 "HgN/A
7:00 AM69 °FMild.2 mph94%29.89 "HgN/A
6:00 AM69 °FMild.2 mph94%29.89 "HgN/A
5:00 AM69 °FMild.2 mph94%29.88 "HgN/A
4:00 AM68 °FMild.3 mph94%29.87 "HgN/A
3:00 AM69 °FMild.2 mph93%29.88 "HgN/A
2:00 AM69 °FMild.1 mph90%29.87 "HgN/A
1:00 AM69 °FMild.6 mph88%29.86 "HgN/A
12:00 AM70 °FMild.7 mph91%29.87 "HgN/A
11:00 PM
Sun, Jul 5
70 °FMild.3 mph89%29.88 "HgN/A
10:00 PM71 °FMild.5 mph88%29.88 "HgN/A
9:00 PM71 °FOvercast.5 mph88%29.88 "Hg6 mi
8:00 PM71 °FMild.5 mph86%29.87 "HgN/A
7:00 PM71 °FMild.7 mph85%29.86 "HgN/A
6:00 PM71 °FMild.7 mph84%29.85 "HgN/A
Weather by CustomWeather, © 2015

See weather overviewHow to use our weather pages